CAPE
1339 1859 1669 1558 1593 1762 1820 2099 2086 1927 1886 2078 2376 2311 2334 2347 2183 2162 2365 2515 2578 2766 2825 2857 2986 2888 2794 2951 2651 2954 3510 3326 3339 3915 4090 4267 3875 3408 3823 4076 3935 3734 3524 3366 3378 3391 3507 3590 3637 4057 4065 3743 3460 3166 2821 2856 3233 3306 3206 3173 3332 3449 3433 3324 3090 2860 3062 2867 2380 2156 1966 2119 1870 2040 1941 1820 1638 1839 1695 1631 1838 1555 1284 1132 1086
1572 1776 1940 1560 1503 1623 1703 1781 1889 1865 1728 2016 2167 1966 2193 2405 2416 2374 2357 2597 2643 2530 2743 2579 2700 2803 2688 2812 2858 3087 3452 4069 3648 3414 3812 3914 4017 3294 3572 3499 3914 3727 3702 3849 3901 3299 3325 3512 3562 3407 3489 3472 2937 2514 2442 2322 2571 2968 3036 3074 3288 2987 2949 2955 3142 2967 2822 2744 2619 2432 1796 1759 1743 1837 1878 2029 1952 2265 2221 1993 1466 995 746 764 663
1941 2277 2391 2008 1871 1630 1600 1547 1783 1802 1659 1551 1618 1716 2004 2304 2394 2369 2171 2285 2536 2463 2519 2389 2517 2908 2785 2836 3208 3327 3657 3492 3396 3473 3700 4187 4061 3540 3025 3527 3810 3482 3536 3497 3107 3098 3089 3173 2921 2712 2514 2699 2778 2708 2203 2092 2096 2110 2156 2062 2161 2184 2047 2346 2839 2922 2734 2759 2605 2092 1558 1637 2015 1788 1995 1754 2082 2151 2471 2084 1259 931 846 722 517
2357 2761 2867 2570 2112 1697 1528 1442 1355 1664 1455 1412 1378 1616 1711 1922 2290 2355 2248 2050 2167 2396 2375 2357 2667 3062 2972 2989 3298 3052 3243 3020 3084 3181 3588 3583 3566 3852 3671 3457 3562 3513 3103 2915 2660 2783 2654 2746 2453 2135 2180 2248 2488 2198 1634 1551 1929 2236 2262 2382 2523 2630 2653 2548 2749 3032 2902 2701 2878 2530 2380 2338 2310 1658 1451 1376 1461 1553 1987 2107 1833 1252 1066 766 500
2529 2895 3043 3100 2914 2280 1551 1388 1161 1429 1434 1288 1260 1377 1490 1572 1953 2268 2180 1973 1932 2219 2317 2318 2773 3125 2652 2803 3026 2965 2874 2928 3041 2944 3050 3151 3396 3237 3224 3556 3659 3531 3421 3277 3083 2781 2600 2530 2259 2280 2413 2390 2307 1906 1542 1656 1803 1618 1600 1692 1955 2191 2283 2371 2478 2566 2838 2943 2757 2805 2792 2758 2320 1909 2026 1945 1626 1460 1742 1792 1528 1284 1364 1219 440
2531 2494 2834 3002 3108 2930 2292 1804 1510 1056 925 1174 1232 1338 1373 1376 1656 2079 2164 2096 2064 1971 2267 2265 1933 2410 2518 2379 2618 2845 2805 2958 3073 3088 2904 3005 3120 3198 3318 3424 3303 3330 3262 3104 2880 2835 2549 2598 2447 2240 2044 2079 1818 1646 1906 2034 1974 1499 1520 1677 1686 1950 2159 2465 2549 3010 3194 3154 3167 2800 2686 1827 1955 2227 2396 2545 2221 1302 1002 875 737 648 812 1001 869
2638 2387 2452 2668 2945 3074 2551 2472 2058 1519 1277 1091 1146 1318 1476 1490 1513 1791 2057 2050 1992 1777 1680 2131 1969 1971 2526 2507 2299 2478 2669 2845 3222 3297 3109 3019 3104 3182 3062 3070 3015 2874 2961 2593 2474 2505 2353 2312 2316 2412 2256 2197 2015 1809 1905 1897 1868 1840 1853 2251 2133 1942 1670 1655 1548 1735 1864 1751 1547 1469 1494 1198 1282 1536 1262 1328 1936 2342 2041 1456 1527 1412 1215 1508 1938
2790 2532 2232 2306 2390 2361 2250 2495 2514 2162 2048 2197 1801 1650 1486 1500 1685 1780 2025 2082 1899 1742 1429 1296 1797 1800 1911 2053 2308 2357 2673 2854 3011 3117 3094 2914 2600 2592 2679 2490 2334 2414 2141 2158 1943 1753 1936 1862 1613 1744 2001 2168 2286 1992 2018 1690 1724 1796 1307 1449 1641 1759 1767 1286 1380 1463 1610 1408 1270 1004 1180 1460 1663 1737 1583 1520 1680 2196 1537 866 522 656 1204 1916 2144
2443 2039 2282 2334 2288 2256 2319 2645 3011 3199 3066 2980 2987 2499 2036 1809 1788 1871 2094 2165 1947 1780 1582 1110 1303 1681 1556 1694 1848 1955 1884 2087 2089 2356 2565 2557 2279 2196 2216 2237 2214 2162 2043 2018 1845 1786 1851 1717 1364 1287 1346 1555 2097 3190 3262 3534 2534 1740 2045 2148 2428 2192 2130 1827 1533 1782 1985 1632 1576 1629 1343 1314 1520 1642 990 968 1099 1138 1091 1219 1823 2089 1907 1569 1664
2218 2340 2331 2149 1945 2094 2450 3072 3239 3370 3470 3718 3742 3154 2661 2389 1852 1917 2015 1930 2012 1954 1915 1785 1459 1278 1376 1525 1722 1579 1476 1465 1811 1997 2278 2098 2091 1912 1945 2081 2085 2209 2152 2109 1955 1690 1669 1391 1128 1248 1804 2439 3590 3908 3011 2295 2052 2172 2486 2598 2674 2854 2835 2678 2447 1969 1761 1826 1516 938 793 706 544 504 392 503 595 576 538 787 1244 1536 1778 1988 2144
1708 2075 2257 2327 2452 2182 2404 2822 3137 3146 3291 3186 2884 2953 2898 2580 2351 2486 2478 2244 2094 2029 1916 1822 1596 1336 1105 1023 1225 1155 930 825 2163 1698 1639 1425 1818 1598 1698 1918 2131 2224 2140 2198 2066 1642 1424 1226 1234 1209 2592 3722 3670 3258 2993 2415 2014 1736 1500 1456 2259 2994 2890 2917 2846 2266 2032 1968 1376 1212 1104 1128 1297 1453 1558 1025 755 561 754 978 1422 1591 2112 2325 2261
1923 1685 1827 1740 1769 1981 2130 2205 2236 2001 2478 2733 2677 2652 2716 2677 2295 2333 2454 2409 2601 2340 2136 2065 1815 1437 1114 959 837 778 776 835 1321 1333 1212 1146 1398 1882 1423 1369 1285 1323 1630 1810 1662 1440 1128 978 923 924 973 1510 2152 3730 3892 3020 2240 1890 1577 1561 1554 1444 1694 2748 3038 3174 3266 2846 2560 2346 2256 2367 2475 2422 2322 1960 2138 2082 2302 2393 2414 2440 2467 2368 2395
2174 1625 1642 1315 1524 1343 1399 1266 1510 1682 1733 1967 2115 2086 2145 2207 2305 2148 1926 2230 2191 2479 2419 1923 1853 1703 1184 1183 978 767 766 997 867 777 766 721 620 802 1093 1211 1170 1187 1234 1278 1491 1841 1950 1603 1299 1118 1019 1485 2771 2447 2698 3629 3590 2652 2226 1856 1544 1384 1333 1187 1164 2571 2847 3142 3311 3316 3216 3119 3178 3155 2953 3255 3317 3304 3258 2715 2587 2493 2347 2315 2420
894 903 908 1057 1242 1237 1106 807 887 914 950 998 1329 1504 1425 1468 1659 2059 2104 2107 2126 2226 2230 2317 2023 2052 1663 1391 1572 1289 1062 977 902 870 849 882 937 943 1148 1229 1297 1328 1339 1370 1347 1299 1707 2399 2947 2752 2188 1904 2113 2770 3456 3518 3869 4517 4436 4045 3892 3567 2717 2329 1823 1475 1539 1893 2300 2708 3001 3326 3383 3525 3541 3436 3392 3140 2914 2761 2870 2474 2581 2571 2715
909 842 846 750 780 709 686 690 706 993 987 949 901 914 1170 1363 1495 1686 1822 1801 2054 2231 1987 2253 2278 2283 2118 1921 1909 1711 1122 1324 1204 1140 1094 1110 1208 1248 1232 1172 1474 1415 1367 1487 1645 1733 2007 2390 2814 3019 2890 3005 2860 2920 3426 3672 3801 3779 3851 3789 3720 3591 3576 3863 3399 3255 2718 2367 1957 2524 2690 2757 3067 3124 3313 3164 2945 2908 2671 2481 2269 2387 2380 2494 2434
772 769 717 712 699 648 633 706 628 635 727 737 698 710 789 880 1234 1462 1705 1761 1781 1894 2076 1878 1908 2302 2612 2746 2588 2528 1777 1535 1391 1223 1128 1090 1078 1208 1523 1893 1790 1664 1483 1516 1609 2034 2516 2737 2936 3005 3074 3360 3249 2614 2409 2260 2453 2800 3336 3610 3607 3663 3407 3034 3085 2867 2848 2562 2540 2377 2284 2021 1542 1407 1240 1147 1228 1287 1252 1176 1054 1345 1670 2015 2238
550 576 388 539 603 627 616 711 625 722 686 586 628 706 755 760 943 982 1494 1766 1700 1855 2048 2013 2060 2057 2162 2230 2475 2509 1967 1624 1489 1337 1195 1137 1049 1716 1991 1915 1965 2161 2094 2077 2462 2924 3074 3088 3300 3140 3120 3104 2803 2453 1977 1291 1932 2684 3310 3577 3398 2962 2821 2882 2402 2001 2038 1944 1883 1807 1657 1463 1395 1346 1330 1320 1254 1179 1180 1145 1082 968 1282 1484 1691
540 524 489 508 510 522 535 580 672 684 650 746 779 806 723 700 808 883 936 1103 1336 1469 1832 2087 2114 1963 1805 1641 1776 2273 1651 1357 1136 1038 1120 1179 1079 1848 2374 2487 2500 2634 2660 2870 2940 2847 3218 1764 2122 2724 2558 2161 2097 1868 1499 1268 2298 2715 2392 1827 1974 2518 2236 2536 2400 1879 1770 1790 1772 1668 1667 1661 1712 1668 1664 1632 1545 1448 1429 1362 1204 1453 1388 1376 1564
251 339 299 289 388 443 522 583 553 374 184 224 440 574 676 653 680 708 812 915 974 1038 1127 1141 1310 1552 1602 1286 1552 1542 1434 1378 1128 1107 1224 1276 1285 1857 2054 2118 2187 2580 2712 2680 2801 2830 2814 1782 1618 1399 1436 1718 1655 1355 1235 1210 1265 1762 2100 1890 1671 1934 2264 2075 2093 2073 2325 1720 2465 2832 2548 2304 2567 2530 2404 2008 1822 1739 1690 1632 1592 1716 1245 1326 1296
144 201 256 245 191 308 431 329 62 60 190 3 104 143 438 566 534 549 566 712 754 865 914 916 1146 1211 874 601 1155 969 1214 1267 1316 1399 1389 1309 1407 1503 1829 2120 2203 1964 1661 1668 1797 1684 1795 1747 1691 1490 1400 1240 1245 1259 1257 1220 1141 1150 1162 1484 1688 1474 1314 1372 1309 1247 1245 1207 1136 1075 1002 1287 1652 2406 2550 1552 2092 2077 1890 1696 2111 2206 2145 2111 1407
151 145 188 218 198 173 196 203 200 238 274 235 169 180 131 130 119 225 444 587 610 633 904 819 852 800 674 597 863 844 821 1058 1180 1198 1145 1113 1236 1324 1472 1460 1480 1352 1374 1466 1121 1162 1040 1158 1354 1363 1218 1034 979 1111 1109 1093 1014 980 972 972 1052 1098 1113 1165 1150 1010 902 735 682 650 746 914 990 1128 1521 1874 1982 2201 2410 2136 2291 2050 1859 1866 2002
133 206 182 214 213 212 188 165 125 116 80 119 82 66 41 46 46 111 221 306 249 218 300 392 536 640 611 569 513 501 538 511 674 700 727 873 1017 1115 1204 1216 1172 1084 878 705 781 1056 1038 943 774 599 644 690 757 709 861 950 954 885 880 886 920 993 1013 801 546 368 337 306 501 633 683 754 834 1080 1365 1620 1831 1999 2023 2138 2005 2140 2215 2021 2111
121 116 122 134 142 138 131 106 6 0 0 0 0 0 65 1 4 9 42 85 128 204 232 188 317 352 269 230 193 328 443 453 474 438 539 646 773 949 954 912 888 843 868 814 739 660 645 659 504 487 492 469 482 516 521 619 724 752 728 681 606 526 462 416 354 296 250 221 200 208 350 565 911 1078 1155 1200 1277 1476 1552 1556 1690 1907 2096 2126 1934
0 20 11 70 76 78 96 104 93 86 46 0 0 14 88 90 54 1 6 107 108 121 122 134 160 138 87 21 120 148 224 356 272 228 224 301 381 471 477 493 482 511 483 488 485 468 388 345 560 318 334 334 366 424 437 520 592 614 604 546 465 395 346 398 616 531 750 680 667 597 663 590 764 854 947 1210 1223 1498 1531 1436 1585 1751 1999 2156 2213
0 0 0 0 0 0 0 0 70 21 21 0 52 96 74 89 115 85 0 0 0 0 0 0 0 0 0 0 0 54 87 158 156 144 142 179 226 272 294 284 307 341 350 339 264 210 112 39 39 87 134 180 252 291 330 367 374 392 390 387 364 235 493 1021 910 908 947 842 611 496 421 432 512 621 932 1266 1298 1233 1352 1591 1601 1600 1715 1897 1997
0 0 0 0 0 0 0 0 0 0 0 0 0 0 0 64 95 108 4 0 0 0 0 0 0 0 0 0 0 0 20 76 10 0 0 0 60 138 182 174 156 128 70 31 18 4 0 0 0 0 0 0 132 530 469 537 372 86 103 76 262 561 731 330 202 63 152 98 16 34 134 238 390 637 775 1207 1241 1219 1352 1450 1369 1326 1386 1372 1302
0 0 0 0 0 0 0 0 0 0 0 0 0 0 0 0 0 0 0 0 0 0 0 0 0 0 0 0 0 0 0 0 0 0 0 0 0 0 0 0 0 0 0 3 31 64 0 0 0 2 11 4 48 42 170 152 545 300 198 229 12 73 103 1 0 42 24 2 0 0 3 72 140 166 323 365 443 633 764 612 702 866 1060 1356 1578
0 0 0 0 0 0 0 0 0 0 0 0 0 0 0 0 0 0 0 0 0 0 0 0 0 0 0 0 0 8 54 18 0 0 0 0 0 0 0 0 0 0 0 0 1 2 1 7 48 66 144 279 308 234 253 108 23 0 0 0 0 0 0 0 0 0 0 0 0 0 0 0 1 0 0 21 108 279 293 198 256 442 647 1105 1460
0 0 0 0 0 0 0 0 0 0 0 0 0 0 0 0 0 0 0 0 0 0 0 0 0 0 0 0 0 0 0 0 0 0 1 0 0 0 0 0 0 0 0 0 0 0 1 12 28 4 3 0 8 10 0 0 0 0 0 0 0 0 0 0 0 0 0 0 0 0 0 0 0 0 0 0 2 4 15 57 96 245 508 563 916
0 0 0 0 0 0 0 0 0 0 0 0 0 0 0 0 0 0 0 0 0 0 0 0 0 0 0 0 0 0 0 0 0 0 0 0 0 0 0 0 0 0 0 0 0 0 0 9 21 4 10 3 0 0 0 0 0 0 0 0 0 0 0 0 0 0 0 0 0 0 0 0 0 0 0 0 0 0 0 0 4 84 115 102 308
0 0 0 0 0 0 0 0 0 0 0 0 0 0 0 0 0 0 0 0 0 0 0 0 0 0 0 0 0 0 0 0 0 0 0 0 0 0 0 0 0 0 0 0 0 7 1 0 0 0 0 0 0 0 0 0 0 0 0 0 0 0 0 0 0 0 0 0 0 0 0 0 0 0 0 0 0 0 0 0 0 0 10 11 13
0 0 0 0 0 0 0 0 0 0 0 0 0 0 0 1 1 0 0 0 0 0 0 0 0 0 0 0 0 0 0 0 0 0 0 0 0 0 0 0 0 0 0 0 4 0 0 1 0 1 0 0 0 0 0 0 0 0 0 0 0 0 0 0 0 0 0 0 0 0 0 0 0 0 0 0 0 0 0 0 0 0 0 24 28
0 0 0 0 0 0 0 0 0 0 0 0 0 0 0 0 0 3 1 0 0 0 0 0 0 0 0 0 0 0 0 0 0 0 0 0 0 0 0 0 0 0 0 0 20 0 0 0 0 0 0 0 0 0 0 0 0 0 0 0 0 0 0 0 0 0 0 0 0 0 0 0 0 0 0 0 0 0 0 0 0 0 0 0 0
0 0 0 0 0 0 0 0 0 0 0 0 0 0 0 0 0 0 0 3 1 0 0 0 0 0 0 0 0 0 0 0 0 0 0 0 0 0 0 0 0 0 0 1 0 0 1 0 0 0 0 0 0 0 0 0 0 0 0 0 0 0 0 0 0 0 0 0 0 0 0 0 0 0 0 0 0 0 0 0 0 0 0 0 0
0 0 0 0 0 0 0 0 0 0 0 0 0 0 0 0 0 0 0 0 0 0 1 1 0 0 0 0 0 0 0 0 0 0 0 0 0 0 0 0 4 1 0 1 0 0 0 1 2 0 0 0 0 0 0 0 0 0 0 0 0 0 2 0 0 0 0 0 0 0 0 0 0 0 0 0 0 0 0 0 0 0 0 0 0
0 0 0 0 0 0 0 0 0 0 0 0 0 0 0 0 0 0 0 0 0 0 0 0 2 0 0 0 0 0 0 0 0 0 0 0 0 0 0 0 0 0 4 5 7 6 5 3 2 0 0 0 1 0 0 0 0 0 0 0 0 2 2 2 0 0 0 0 0 0 0 0 0 0 0 0 0 0 0 0 0 0 0 0 0
0 0 0 0 0 0 0 0 0 0 0 0 0 0 0 0 0 0 0 0 0 0 0 0 0 0 9 7 1 0 0 0 0 0 0 0 0 0 0 0 0 0 0 0 0 0 2 4 5 6 5 5 5 7 5 2 0 0 0 1 5 6 3 3 0 0 2 0 0 0 0 0 0 0 0 0 0 0 0 0 0 0 0 0 0
0 0 0 0 0 0 0 0 0 0 0 0 0 0 0 0 0 0 0 0 0 0 0 0 0 0 0 5 1 1 0 0 0 0 0 0 0 1 0 1 9 5 0 0 1 2 7 7 9 10 8 9 10 13 12 10 7 4 3 5 5 5 1 0 1 5 2 1 0 0 0 0 0 0 0 0 0 0 0 0 0 0 0 0 0
0 0 0 0 0 0 0 0 0 0 0 0 0 0 0 0 0 0 0 0 0 1 0 1 0 3 4 7 6 5 0 0 0 0 0 0 0 0 0 0 2 6 4 10 9 12 12 9 8 10 9 8 5 9 8 8 8 6 5 5 4 4 2 2 2 3 0 0 0 0 0 0 0 0 0 0 0 0 0 0 0 0 0 0 0
0 0 0 0 0 0 0 0 0 0 0 0 0 0 0 0 0 0 0 0 0 0 0 0 0 0 4 6 6 3 0 0 0 0 0 0 0 3 2 1 2 4 4 8 8 13 15 17 17 20 23 25 13 11 11 8 3 8 7 5 4 4 3 2 0 0 0 0 2 2 0 0 0 0 0 0 0 0 0 0 0 0 0 0 0
0 0 0 0 0 0 0 0 0 0 0 0 0 0 0 0 0 0 0 0 0 0 0 0 0 9 0 0 0 1 2 0 1 2 2 0 0 0 0 0 0 3 3 4 7 12 17 19 20 21 22 19 18 12 17 16 14 7 8 8 6 3 6 6 5 2 2 0 0 0 1 0 0 0 0 0 0 0 0 0 0 0 0 0 0
0 0 0 0 0 0 0 0 0 0 0 0 0 0 0 0 0 0 2 2 2 0 0 0 2 8 0 1 0 0 0 0 2 2 2 1 0 1 3 3 2 5 5 6 11 8 4 3 2 8 9 6 4 5 6 9 9 8 8 8 6 6 6 6 5 7 6 4 1 0 0 0 0 0 0 0 1 0 0 0 0 0 0 0 0
0 0 0 0 0 0 0 0 0 0 0 0 0 0 1 4 3 3 3 3 4 4 4 4 5 5 5 0 0 0 1 4 4 2 2 0 0 0 1 0 0 2 4 6 5 6 7 8 9 9 8 0 2 1 2 2 2 1 5 7 8 7 7 6 7 5 5 3 2 4 3 2 0 0 1 1 0 1 0 0 0 0 0 0 0
0 0 0 0 0 0 0 0 0 0 0 0 2 4 5 6 5 6 4 5 5 4 3 4 4 2 5 6 5 2 4 2 2 0 1 2 2 0 1 1 3 5 6 5 6 6 8 10 10 9 6 5 1 1 1 1 1 1 1 1 2 2 7 6 8 8 5 5 4 5 4 3 2 3 3 4 6 6 3 1 0 0 0 0 0
0 0 0 0 0 0 0 0 0 0 2 3 4 5 6 7 6 5 4 3 3 3 2 2 2 2 3 4 4 4 1 2 0 2 2 2 2 2 2 4 5 8 7 6 9 7 8 8 10 9 8 9 9 8 6 3 2 2 0 1 4 2 1 1 3 1 2 6 6 8 7 6 6 5 5 4 5 8 10 9 5 0 0 0 0
0 0 0 0 0 0 0 0 0 1 2 2 4 3 2 3 2 4 4 3 4 4 4 3 2 3 3 2 1 1 2 2 2 3 3 2 2 4 4 6 7 8 10 9 9 10 10 9 9 9 11 14 10 7 4 6 5 5 6 5 2 1 1 1 3 2 7 8 7 9 9 9 8 6 10 7 4 3 4 6 7 5 3 1 0
1 0 0 0 0 0 0 0 0 0 2 2 2 1 1 0 1 2 4 3 2 3 2 1 0 1 0 0 2 2 2 2 4 5 6 7 8 8 8 10 7 6 6 9 12 10 13 12 10 12 12 13 12 10 11 11 14 11 12 9 10 9 1 0 0 0 10 10 9 10 9 10 9 7 4 6 6 3 3 2 7 9 9 3 1
0 0 0 0 0 0 0 0 0 0 0 0 0 0 0 0 0 1 1 0 2 2 2 1 2 2 2 2 2 2 3 4 4 5 4 4 5 8 8 11 9 6 6 6 5 7 9 11 11 13 11 10 11 11 12 11 14 11 9 10 9 0 0 0 0 0 0 0 0 0 0 0 0 1 1 1 1 1 1 0 1 4 7 5 4
0 0 0 0 0 0 0 0 0 0 0 0 0 1 0 0 1 2 2 1 0 0 0 2 2 0 2 1 0 2 1 5 6 7 8 11 10 10 10 8 10 8 8 7 7 8 8 8 11 12 11 12 12 12 11 12 12 12 10 12 0 1 0 0 0 0 0 0 0 0 2 4 4 6 8 10 6 2 2 4 3 3 4 2 3
0 0 0 0 0 0 0 0 0 0 0 0 0 1 1 1 0 2 0 1 2 2 2 2 1 1 0 4 0 2 1 5 8 7 3 11 11 9 8 9 10 9 8 8 5 4 4 7 10 11 10 10 9 9 10 14 12 9 12 0 0 0 0 0 0 0 0 0 0 0 2 4 6 5 4 4 4 4 2 2 2 6 3 1 2
0 0 0 0 0 0 0 0 0 0 2 2 1 1 0 1 1 1 2 2 2 1 2 3 2 1 0 2 0 2 0 0 6 0 1 11 11 11 9 9 8 11 9 2 1 0 4 8 8 7 10 11 11 10 10 9 12 10 0 0 0 0 0 0 0 0 0 0 0 1 3 4 3 1 1 0 1 2 2 2 0 1 1 0 0
Wind_Speed
16 16 16 15 14 14 14 13 11 12 11 12 12 11 12 12 12 12 13 11 11 11 10 9 9 9 8 8 7 8 7 7 7 6 5 5 4 3 3 3 1 1 2 1 2 3 3 3 3 3 3 2 3 4 5 5 3 4 4 4 3 4 4 4 3 4 5 7 7 7 9 9 8 9 7 7 6 9 8 6 7 6 6 5 5
16 18 17 17 15 15 14 14 14 13 12 13 12 12 12 13 13 13 13 13 11 10 11 10 10 10 9 9 8 8 8 8 6 6 5 5 4 4 5 3 2 0 2 2 1 2 2 2 1 1 2 1 2 2 2 3 4 3 4 3 3 3 4 3 2 1 4 4 6 7 6 7 6 7 7 6 6 6 6 7 6 7 6 5 4
17 19 19 19 17 16 15 15 16 14 13 13 12 12 13 13 14 14 14 14 13 12 12 11 12 11 10 11 10 9 9 7 6 6 5 4 3 2 3 5 3 1 1 1 1 1 1 0 1 1 1 1 2 0 2 2 3 4 4 4 4 3 3 2 1 0 2 3 4 4 4 5 4 5 5 4 5 5 7 9 8 8 6 4 3
17 19 20 20 19 18 17 16 16 16 15 15 14 14 15 15 16 15 15 15 15 15 13 13 14 13 12 12 11 10 9 8 7 7 6 4 3 3 3 3 3 2 2 1 1 1 1 1 1 2 2 2 1 3 3 3 2 2 2 3 3 3 3 2 2 1 1 3 3 2 2 2 1 2 3 3 6 8 9 9 7 6 7 6 5
17 18 18 19 20 20 19 18 17 17 17 17 16 16 16 17 18 17 16 17 16 17 16 15 16 15 14 13 12 11 10 9 9 7 7 7 6 4 4 3 3 3 2 3 3 2 2 1 1 1 1 2 1 1 1 1 2 3 2 2 3 3 4 3 2 2 2 2 2 1 1 1 1 1 2 4 5 6 6 7 7 6 6 6 6
19 18 17 17 19 20 21 20 18 17 18 19 18 18 18 18 19 20 18 18 18 18 18 18 17 17 16 15 14 14 13 12 11 10 8 8 8 7 6 4 3 3 3 3 3 3 2 2 1 1 0 1 2 2 2 2 1 2 2 2 2 2 2 2 3 4 3 3 2 1 0 1 2 2 2 3 4 6 6 5 5 6 8 8 10
21 19 18 18 19 19 20 20 21 20 21 21 21 21 20 19 19 19 20 19 18 19 19 19 20 19 19 18 16 16 15 14 13 12 10 10 10 9 8 6 5 4 3 3 3 3 3 3 4 3 2 1 1 0 2 2 1 1 1 1 1 2 1 1 2 2 3 3 3 3 3 3 4 4 3 3 4 4 5 6 8 10 11 11 11
24 23 21 20 20 19 19 19 20 23 24 25 24 23 22 22 21 20 20 19 19 19 20 21 21 21 20 20 19 19 18 16 16 15 13 12 12 11 10 8 6 5 5 5 5 5 5 5 4 5 6 5 4 3 3 3 4 3 2 2 2 1 1 2 3 3 4 4 5 5 6 7 5 5 5 5 6 7 8 9 10 12 13 14 15
28 25 24 23 23 23 22 20 20 23 25 26 26 25 25 25 24 23 22 20 21 20 21 21 22 22 22 22 21 20 19 18 18 18 17 15 13 12 11 10 8 7 6 6 7 7 7 6 6 5 7 9 8 5 5 8 7 5 5 4 4 4 4 5 5 5 5 5 6 7 6 7 7 6 6 8 7 8 9 9 10 11 13 14 17
29 28 28 27 26 26 25 23 23 23 25 26 27 27 27 27 26 25 23 22 22 22 22 22 22 22 23 23 22 22 21 21 24 29 25 20 17 16 15 13 12 10 10 9 8 7 6 7 7 7 9 8 9 10 9 7 6 4 5 5 5 5 6 6 6 6 6 6 6 7 7 8 9 9 8 9 9 8 9 10 10 12 13 14 16
24 26 29 33 35 33 28 26 26 25 25 25 25 27 28 30 29 28 27 26 24 24 24 23 23 23 23 23 23 23 24 23 32 30 25 20 18 17 16 14 13 12 10 10 9 8 8 8 7 7 11 10 10 10 9 10 10 9 7 5 3 4 4 5 5 5 5 5 6 6 7 8 8 9 9 9 8 9 10 11 9 10 11 12 13
22 23 27 31 32 31 32 31 30 28 28 27 27 28 29 30 31 31 29 28 28 26 25 25 24 24 25 24 23 24 25 35 38 32 26 23 21 20 18 16 15 14 14 12 12 10 9 8 8 7 8 8 6 11 13 12 12 11 11 10 9 8 7 5 6 6 5 5 5 6 7 6 7 8 8 7 8 9 9 8 8 7 7 8 10
22 22 25 29 30 29 30 31 32 34 37 33 31 31 30 29 31 32 31 30 30 29 27 27 26 25 25 24 25 26 26 41 36 34 29 26 24 21 19 18 17 15 15 14 14 14 13 11 9 9 8 13 12 8 8 12 16 14 12 11 10 9 9 9 8 6 5 5 6 6 7 6 5 8 9 9 9 7 8 7 7 6 6 5 6
33 31 30 29 29 29 30 32 33 33 35 35 35 34 33 31 31 33 33 32 31 31 30 29 29 27 27 26 26 29 27 41 38 37 33 28 28 24 20 18 18 17 16 16 16 15 15 13 12 11 10 9 9 10 11 11 12 14 14 13 12 12 14 14 12 10 9 7 6 6 7 8 7 9 10 10 8 7 7 6 7 7 6 4 5
36 36 38 38 36 33 30 29 30 31 33 32 32 33 34 36 36 35 34 32 34 34 33 32 32 31 30 29 29 29 40 45 43 40 39 33 32 26 22 21 19 18 18 18 17 16 15 15 13 13 13 11 12 15 13 13 13 13 12 12 12 11 11 13 14 14 14 12 9 7 7 8 8 8 11 13 12 11 10 8 7 7 5 4 5
39 39 40 39 39 39 38 38 37 37 37 37 36 34 35 36 37 37 36 35 34 36 36 34 34 35 35 32 32 31 44 46 45 42 38 36 31 26 24 23 21 19 19 18 19 19 19 17 17 16 16 16 28 29 27 19 15 13 12 12 12 13 13 14 13 13 10 9 8 8 9 13 14 11 12 13 12 10 9 8 10 10 7 6 6
39 38 39 37 37 37 37 37 38 38 38 38 37 37 36 35 37 37 36 35 37 38 39 39 39 40 39 38 36 34 39 44 43 41 40 37 30 27 26 24 23 21 22 22 22 23 22 23 23 22 21 28 29 31 27 22 16 14 14 14 15 14 15 16 15 16 16 17 12 8 6 5 5 5 6 7 13 14 14 12 13 13 11 7 7
41 40 38 37 36 35 34 34 36 37 38 38 37 37 36 34 33 33 36 37 37 41 47 48 49 49 48 44 39 37 46 46 45 44 40 39 33 29 28 27 25 25 25 25 25 26 33 38 31 28 28 30 32 33 29 22 19 16 15 15 15 16 16 17 19 19 19 19 17 14 12 11 9 9 10 11 10 17 19 15 15 15 11 10 9
44 43 41 39 38 37 35 32 32 33 35 35 33 34 33 30 28 27 28 30 34 36 43 48 54 54 52 46 43 47 48 53 53 50 46 43 38 32 29 28 28 28 27 26 27 27 35 39 42 39 35 32 35 34 30 26 21 20 19 17 16 16 18 19 19 19 19 16 17 16 16 17 17 17 17 18 17 19 21 17 16 17 14 13 13
40 41 41 39 39 39 37 35 nan nan 31 nan 30 30 25 23 22 22 23 23 24 26 33 44 53 53 46 46 48 48 48 54 56 56 54 51 44 37 34 32 32 35 35 35 36 35 30 34 37 40 39 36 35 32 30 29 25 23 22 21 18 18 25 22 21 20 17 15 14 14 13 14 14 16 16 15 19 24 22 20 18 17 16 16 16
33 35 36 37 37 37 37 36 36 34 32 32 32 30 25 21 22 23 24 23 21 23 27 34 45 53 53 52 51 50 50 51 51 55 55 54 52 47 45 47 46 42 39 39 36 36 39 39 33 36 35 36 33 31 30 27 25 24 24 23 25 27 23 21 21 20 18 17 16 16 17 19 19 19 17 19 18 19 20 20 21 21 20 17 16
31 31 32 34 35 36 35 34 34 35 nan 35 nan nan nan nan nan 29 28 26 26 27 25 24 27 34 42 48 49 48 48 48 43 46 48 50 52 52 48 47 44 44 45 42 41 39 38 36 30 34 36 34 32 31 29 28 27 27 27 28 26 27 26 24 24 23 23 21 20 20 21 22 22 22 21 20 21 21 21 21 21 22 22 21 18
33 33 33 33 34 34 34 33 nan nan nan nan nan nan nan nan nan nan nan nan 30 31 31 26 21 19 23 29 36 39 41 43 42 40 43 45 46 48 47 45 45 46 44 41 39 36 34 32 30 36 36 34 31 30 28 28 26 30 29 26 25 27 26 27 26 26 24 23 22 22 22 23 24 24 23 23 23 24 23 22 22 22 22 20 19
nan nan nan nan nan nan nan 33 nan nan nan nan nan nan nan nan nan nan nan 32 32 34 33 30 26 22 nan nan 25 29 30 31 33 34 36 41 43 44 45 47 48 45 41 40 38 36 36 35 33 35 32 31 30 29 28 28 30 28 27 25 27 29 29 27 27 26 26 24 23 23 24 25 24 24 25 25 24 24 23 23 22 23 22 21 20
nan nan nan nan nan nan nan nan nan nan nan nan nan nan nan nan 33 nan nan nan nan nan nan nan nan nan nan nan nan nan nan 24 24 24 26 31 36 41 42 44 45 44 40 39 36 37 39 nan nan nan 31 28 27 26 28 28 24 26 25 25 27 29 29 28 31 31 29 29 28 27 26 26 25 25 26 26 25 24 25 25 25 24 23 21 20
nan nan nan nan nan nan nan nan nan nan nan nan nan nan nan nan nan 32 nan nan nan nan nan nan nan nan nan nan nan nan nan nan nan nan nan nan nan 35 34 34 36 37 nan nan nan nan nan nan nan nan nan nan 30 33 33 35 31 nan 24 nan 28 29 34 34 34 nan 31 nan nan nan 27 26 26 28 26 26 27 28 29 28 28 26 25 24 22
nan nan nan nan nan nan nan nan nan nan nan nan nan nan nan nan nan nan nan nan nan nan nan nan nan nan nan nan nan nan nan nan nan nan nan nan nan nan nan nan nan nan nan nan nan nan nan nan nan nan nan nan nan nan 33 32 29 30 31 33 nan nan 36 nan nan nan nan nan nan nan nan nan 29 29 30 30 29 29 31 30 29 28 28 26 24
nan nan nan nan nan nan nan nan nan nan nan nan nan nan nan nan nan nan nan nan nan nan nan nan nan nan nan nan nan nan nan nan nan nan nan nan nan nan nan nan nan nan nan nan nan nan nan nan nan nan 29 31 32 33 33 34 nan nan nan nan nan nan nan nan nan nan nan nan nan nan nan nan nan nan nan nan 33 32 33 31 31 30 29 29 26
nan nan nan nan nan nan nan nan nan nan nan nan nan nan nan nan nan nan nan nan nan nan nan nan nan nan nan nan nan nan nan nan nan nan nan nan nan nan nan nan nan nan nan nan nan nan nan nan nan nan nan nan nan nan nan nan nan nan nan nan nan nan nan nan nan nan nan nan nan nan nan nan nan nan nan nan nan nan nan nan nan 33 32 31 29
nan nan nan nan nan nan nan nan nan nan nan nan nan nan nan nan nan nan nan nan nan nan nan nan nan nan nan nan nan nan nan nan nan nan nan nan nan nan nan nan nan nan nan nan nan nan nan nan nan nan nan nan nan nan nan nan nan nan nan nan nan nan nan nan nan nan nan nan nan nan nan nan nan nan nan nan nan nan nan nan nan nan 35 34 33
nan nan nan nan nan nan nan nan nan nan nan nan nan nan nan nan nan nan nan nan nan nan nan nan nan nan nan nan nan nan nan nan nan nan nan nan nan nan nan nan nan nan nan nan nan nan nan nan nan nan nan nan nan nan nan nan nan nan nan nan nan nan nan nan nan nan nan nan nan nan nan nan nan nan nan nan nan nan nan nan nan nan nan nan nan
nan nan nan nan nan nan nan nan nan nan nan nan nan nan nan nan nan nan nan nan nan nan nan nan nan nan nan nan nan nan nan nan nan nan nan nan nan nan nan nan nan nan nan nan nan nan nan nan nan nan nan nan nan nan nan nan nan nan nan nan nan nan nan nan nan nan nan nan nan nan nan nan nan nan nan nan nan nan nan nan nan nan nan nan nan
nan nan nan nan nan nan nan nan nan nan nan nan nan nan nan nan nan nan nan nan nan nan nan nan nan nan nan nan nan nan nan nan nan nan nan nan nan nan nan nan nan nan nan nan nan nan nan nan nan nan nan nan nan nan nan nan nan nan nan nan nan nan nan nan nan nan nan nan nan nan nan nan nan nan nan nan nan nan nan nan nan nan nan nan nan
nan nan nan nan nan nan nan nan nan nan nan nan nan nan nan nan nan nan nan nan nan nan nan nan nan nan nan nan nan nan nan nan nan nan nan nan nan nan nan nan nan nan nan nan nan nan nan nan nan nan nan nan nan nan nan nan nan nan nan nan nan nan nan nan nan nan nan nan nan nan nan nan nan nan nan nan nan nan nan nan nan nan nan nan nan
nan nan nan nan nan nan nan nan nan nan nan nan nan nan nan nan nan nan nan nan nan nan nan nan nan nan nan nan nan nan nan nan nan nan nan nan nan nan nan nan nan nan nan nan nan nan nan nan nan nan nan nan nan nan nan nan nan nan nan nan nan nan nan nan nan nan nan nan nan nan nan nan nan nan nan nan nan nan nan nan nan nan nan nan nan
nan nan nan nan nan nan nan nan nan nan nan nan nan nan nan nan nan nan nan nan nan nan nan nan nan nan nan nan nan nan nan nan nan nan nan nan nan nan nan nan nan nan nan nan nan nan nan nan nan nan nan nan nan nan nan nan nan nan nan nan nan nan nan nan nan nan nan nan nan nan nan nan nan nan nan nan nan nan nan nan nan nan nan nan nan
nan nan nan nan nan nan nan nan nan nan nan nan nan nan nan nan nan nan nan nan nan nan nan nan nan nan nan nan nan nan nan nan nan nan nan nan nan nan nan nan nan nan nan nan nan nan nan nan nan nan nan nan nan nan nan nan nan nan nan nan nan nan nan nan nan nan nan nan nan nan nan nan nan nan nan nan nan nan nan nan nan nan nan nan nan
nan nan nan nan nan nan nan nan nan nan nan nan nan nan nan nan nan nan nan nan nan nan nan nan nan nan nan nan nan nan nan nan nan nan nan nan nan nan nan nan nan nan nan nan nan nan nan nan nan nan nan nan nan nan nan nan nan nan nan nan nan nan nan nan nan nan nan nan nan nan nan nan nan nan nan nan nan nan nan nan nan nan nan nan nan
nan nan nan nan nan nan nan nan nan nan nan nan nan nan nan nan nan nan nan nan nan nan nan nan nan nan nan nan nan nan nan nan nan nan nan nan nan nan nan nan nan nan nan nan nan nan nan nan nan nan nan nan nan nan nan nan nan nan nan nan nan nan nan nan nan nan nan nan nan nan nan nan nan nan nan nan nan nan nan nan nan nan nan nan nan
nan nan nan nan nan nan nan nan nan nan nan nan nan nan nan nan nan nan nan nan nan nan nan nan nan nan nan nan nan nan nan nan nan nan nan nan nan nan nan nan nan nan nan nan nan nan nan nan nan nan nan nan nan nan nan nan nan nan nan nan nan nan nan nan nan nan nan nan nan nan nan nan nan nan nan nan nan nan nan nan nan nan nan nan nan
nan nan nan nan nan nan nan nan nan nan nan nan nan nan nan nan nan nan nan nan nan nan nan nan nan nan nan nan nan nan nan nan nan nan nan nan nan nan nan nan nan nan nan nan nan nan nan nan nan nan nan nan nan nan nan nan nan nan nan nan nan nan nan nan nan nan nan nan nan nan nan nan nan nan nan nan nan nan nan nan nan nan nan nan nan
nan nan nan nan nan nan nan nan nan nan nan nan nan nan nan nan nan nan nan nan nan nan nan nan nan nan nan nan nan nan nan nan nan nan nan nan nan nan nan nan nan nan nan nan nan nan nan nan nan nan nan nan nan nan nan nan nan nan nan nan nan nan nan nan nan nan nan nan nan nan nan nan nan nan nan nan nan nan nan nan nan nan nan nan nan
nan nan nan nan nan nan nan nan nan nan nan nan nan nan nan nan nan nan nan nan nan nan nan nan nan nan nan nan nan nan nan nan nan nan nan nan nan nan nan nan nan nan nan nan nan nan nan nan nan nan nan nan nan nan nan nan nan nan nan nan nan nan nan nan nan nan nan nan nan nan nan nan nan nan nan nan nan nan nan nan nan nan nan nan nan
nan nan nan nan nan nan nan nan nan nan nan nan nan nan nan nan nan nan nan nan nan nan nan nan nan nan nan nan nan nan nan nan nan nan nan nan nan nan nan nan nan nan nan nan nan nan nan nan nan nan nan nan nan nan nan nan nan nan nan nan nan nan nan nan nan nan nan nan nan nan nan nan nan nan nan nan nan nan nan nan nan nan nan nan nan
nan nan nan nan nan nan nan nan nan nan nan nan nan nan nan nan nan nan nan nan nan nan nan nan nan nan nan nan nan nan nan nan nan nan nan nan nan nan nan nan nan nan nan nan nan nan nan nan nan nan nan nan nan nan nan nan nan nan nan nan nan nan nan nan nan nan nan nan nan nan nan nan nan nan nan nan nan nan nan nan nan nan nan nan nan
nan nan nan nan nan nan nan nan nan nan nan nan nan nan nan nan nan nan nan nan nan nan nan nan nan nan nan nan nan nan nan nan nan nan nan nan nan nan nan nan nan nan nan nan nan nan nan nan nan nan nan nan nan nan nan nan nan nan nan nan nan nan nan nan nan nan nan nan nan nan nan nan nan nan nan nan nan nan nan nan nan nan nan nan nan
nan nan nan nan nan nan nan nan nan nan nan nan nan nan nan nan nan nan nan nan nan nan nan nan nan nan nan nan nan nan nan nan nan nan nan nan nan nan nan nan nan nan nan nan nan nan nan nan nan nan nan nan nan nan nan nan nan nan nan nan nan nan nan nan nan nan nan nan nan nan nan nan nan nan nan nan nan nan nan nan nan nan nan nan nan
nan nan nan nan nan nan nan nan nan nan nan nan nan nan nan nan nan nan nan nan nan nan nan nan nan nan nan nan nan nan nan nan nan nan nan nan nan nan nan nan nan nan nan nan nan nan nan nan nan nan nan nan nan nan nan nan nan nan nan nan nan nan nan nan nan nan nan nan nan nan nan nan nan nan nan nan nan nan nan nan nan nan nan nan nan
nan nan nan nan nan nan nan nan nan nan nan nan nan nan nan nan nan nan nan nan nan nan nan nan nan nan nan nan nan nan nan nan nan nan nan nan nan nan nan nan nan nan nan nan nan nan nan nan nan nan nan nan nan nan nan nan nan nan nan nan nan nan nan nan nan nan nan nan nan nan nan nan nan nan nan nan nan nan nan nan nan nan nan nan nan
nan nan nan nan nan nan nan nan nan nan nan nan nan nan nan nan nan nan nan nan nan nan nan nan nan nan nan nan nan nan nan nan nan nan nan nan nan nan nan nan nan nan nan nan nan nan nan nan nan nan nan nan nan nan nan nan nan nan nan nan nan nan nan nan nan nan nan nan nan nan nan nan nan nan nan nan nan nan nan nan nan nan nan nan nan
nan nan nan nan nan nan nan nan nan nan nan nan nan nan nan nan nan nan nan nan nan nan nan nan nan nan nan nan nan nan nan nan nan nan nan nan nan nan nan nan nan nan nan nan nan nan nan nan nan nan nan nan nan nan nan nan nan nan nan nan nan nan nan nan nan nan nan nan nan nan nan nan nan nan nan nan nan nan nan nan nan nan nan nan nan
Wind_Direction
251 247 240 237 233 232 231 231 226 225 223 227 223 222 223 223 229 229 240 236 238 246 249 250 253 258 252 259 262 265 264 264 271 278 292 296 288 263 238 266 264 236 263 229 225 262 258 244 242 233 223 203 216 215 219 225 241 248 255 264 263 262 263 248 215 183 192 209 211 214 220 222 226 229 224 230 225 230 216 220 209 199 193 201 200
254 253 249 244 241 237 231 231 231 228 227 230 232 230 228 231 231 234 237 242 240 244 253 256 261 259 258 258 250 252 262 263 262 274 286 301 307 306 309 310 313 236 191 186 218 204 250 276 249 254 283 258 202 188 204 217 228 230 252 265 259 269 283 283 272 200 156 186 211 221 214 235 225 235 223 214 209 207 187 186 182 182 192 202 221
256 254 252 251 250 245 238 233 233 231 231 233 237 237 241 238 238 240 239 241 248 240 250 252 256 257 248 250 254 250 255 257 256 251 254 270 287 272 273 288 298 298 309 308 162 193 145 136 77 32 270 286 281 244 201 209 212 203 199 201 199 202 223 253 281 41 125 148 186 204 234 228 211 203 199 195 182 155 156 157 170 183 193 203 228
259 259 255 254 253 250 246 237 234 235 235 235 236 238 238 243 246 242 243 243 246 250 243 246 254 251 245 247 249 246 254 256 252 254 257 254 253 270 275 274 268 273 272 249 227 242 179 171 130 130 155 167 173 182 195 202 209 231 205 219 225 214 227 263 303 337 62 112 141 179 233 236 202 152 157 169 145 157 156 164 168 177 189 202 214
261 262 261 259 255 252 251 248 243 239 236 236 239 240 239 240 245 245 245 246 246 251 252 249 250 253 249 249 249 249 251 253 255 250 248 254 260 258 257 264 275 271 255 250 234 215 202 176 186 119 82 99 106 111 182 218 211 190 185 214 228 238 243 247 267 308 336 56 97 106 137 4 359 97 156 157 162 155 164 174 186 196 219 224 234
266 266 263 261 257 253 250 249 247 245 242 241 239 240 241 242 243 248 245 248 249 251 255 255 256 257 253 250 252 254 252 250 253 250 250 257 264 263 263 257 254 256 260 269 283 282 275 287 275 287 110 109 133 171 197 175 159 109 118 158 184 224 258 284 302 305 314 323 337 90 7 182 232 252 188 172 175 181 181 198 219 233 243 247 253
265 263 261 261 260 257 253 248 246 245 244 241 241 243 242 243 246 248 252 251 254 255 259 258 256 258 260 258 257 260 260 259 256 256 251 245 244 249 247 249 246 243 251 258 257 271 275 274 285 289 287 281 181 266 334 344 346 94 67 83 63 40 35 347 296 300 299 300 294 297 282 273 254 233 243 224 212 219 212 227 247 257 259 261 266
258 258 257 258 260 260 256 251 244 241 238 240 239 240 242 243 244 246 249 254 256 257 257 260 260 258 258 259 259 260 262 262 263 260 255 251 251 255 255 248 236 228 227 237 239 243 256 263 271 285 293 294 300 294 300 301 295 311 316 318 313 317 297 245 244 241 249 248 255 247 251 251 260 258 250 258 257 261 254 246 245 255 266 278 284
254 256 258 256 255 254 252 252 250 246 243 242 242 241 241 241 241 241 245 246 251 254 257 257 258 258 259 258 257 257 260 263 263 266 267 264 255 251 253 254 251 243 231 222 233 242 247 251 260 270 280 286 283 271 237 233 253 271 275 274 278 271 263 252 254 255 257 256 253 260 263 267 265 268 259 259 256 251 255 260 265 268 271 274 279
266 264 260 254 251 252 251 249 252 252 249 247 245 245 245 244 242 244 243 244 245 247 250 253 256 258 259 260 260 259 258 256 259 255 249 251 255 253 253 253 248 241 235 233 233 239 244 249 253 254 252 274 308 322 331 327 308 294 270 265 261 266 268 272 272 272 267 262 263 261 260 260 260 260 257 255 250 259 265 267 268 269 274 279 283
273 272 265 257 254 253 252 250 251 254 253 250 246 244 245 246 246 243 241 242 241 245 248 251 252 254 256 258 261 261 259 257 268 272 272 265 256 256 256 257 260 260 259 258 252 244 243 249 255 286 306 316 330 337 329 326 328 333 341 345 325 298 290 292 291 278 270 266 263 263 251 247 252 251 253 250 251 245 249 259 262 267 275 276 280
268 271 271 268 264 265 259 254 252 251 251 253 252 248 245 245 248 248 245 244 245 243 247 249 249 249 252 254 257 258 258 263 271 272 271 271 265 257 257 258 260 262 266 264 259 257 255 258 268 275 296 317 313 312 323 334 337 337 338 341 348 355 350 314 285 278 280 269 260 256 246 248 251 261 258 249 249 244 247 252 260 266 268 280 288
264 266 269 271 270 271 266 260 255 255 253 251 251 253 251 248 247 247 247 246 246 248 247 248 251 251 249 251 253 257 254 267 272 271 269 268 269 264 258 260 258 259 257 258 259 257 254 254 252 253 245 266 281 280 281 297 318 330 332 333 337 339 339 343 340 321 286 285 279 273 274 261 254 264 262 253 253 254 261 269 275 271 274 283 295
254 253 256 266 270 270 267 263 258 255 253 252 249 252 259 257 252 245 243 244 246 246 248 249 250 252 251 251 252 253 252 259 266 268 267 264 262 260 254 255 257 258 257 255 256 260 264 265 266 267 266 258 261 270 275 284 283 295 302 304 305 318 332 337 340 351 340 313 294 281 283 288 284 274 270 271 273 272 267 273 269 269 275 291 285
252 251 250 250 253 257 261 263 263 260 255 254 258 258 258 257 255 251 246 243 243 242 243 246 247 248 251 250 251 252 250 252 257 261 263 265 264 260 252 251 253 256 259 263 265 265 264 266 269 269 268 269 260 252 263 264 268 274 284 290 293 289 290 299 312 316 315 316 315 309 293 294 295 284 279 280 279 279 279 269 267 272 289 319 320
253 249 248 248 250 251 254 255 256 256 255 252 255 257 257 257 258 257 257 253 249 245 241 240 243 245 245 244 245 250 251 245 247 249 253 258 261 258 257 257 255 255 258 261 262 264 267 268 270 270 269 265 251 244 244 245 248 257 267 277 281 285 287 290 293 293 288 271 270 258 252 241 237 243 259 266 273 284 287 291 291 296 309 312 306
252 250 251 251 251 252 253 254 253 252 251 254 254 254 254 251 245 243 249 259 260 256 249 244 238 238 241 245 246 247 254 246 249 253 254 253 253 252 252 253 253 254 255 256 258 262 264 262 260 259 261 260 253 250 244 241 253 255 259 259 262 263 267 268 287 308 308 309 309 299 283 277 275 264 272 287 295 290 284 286 297 301 306 300 289
251 252 253 253 253 255 258 259 255 250 247 248 249 250 250 249 244 242 245 247 252 257 254 248 243 239 236 238 241 251 249 244 242 245 248 250 247 249 252 252 252 254 256 258 259 259 260 257 254 255 256 257 252 252 243 244 250 250 252 253 253 259 262 266 268 279 309 311 310 312 314 307 306 308 301 302 309 299 299 300 292 290 296 293 286
250 253 255 255 255 254 255 256 256 252 248 245 244 246 244 240 240 240 244 247 249 248 250 247 244 240 238 237 234 244 248 245 240 242 242 242 245 253 254 253 251 250 251 256 261 261 261 257 256 257 258 257 254 251 247 246 254 251 250 251 253 256 263 259 264 265 267 270 278 285 292 304 305 299 302 324 329 316 310 311 295 290 290 287 280
250 250 252 252 252 253 252 250 nan nan 245 nan 235 238 238 234 232 237 239 242 249 252 249 249 248 246 245 241 241 238 243 245 241 239 240 240 242 248 256 256 252 245 240 238 237 239 241 260 254 257 260 256 256 255 254 253 255 256 256 258 257 258 255 256 262 265 268 274 277 280 284 284 286 289 286 286 306 316 317 311 306 299 295 292 285
253 253 250 249 249 251 252 250 249 250 246 237 236 241 239 237 240 240 247 253 258 259 258 253 249 246 244 243 241 239 241 244 242 237 237 238 238 242 250 248 248 249 251 249 248 246 246 250 254 255 253 250 249 251 258 258 263 261 261 261 256 254 252 263 264 262 272 273 278 281 280 279 279 281 282 286 282 281 289 296 301 307 308 303 293
253 254 252 250 249 249 250 251 252 253 nan 251 nan nan nan nan nan 254 256 258 265 268 265 259 256 249 243 242 244 247 248 248 246 244 242 240 240 239 245 249 247 248 249 247 246 247 248 247 249 254 248 246 244 246 253 263 268 270 264 260 252 253 262 268 271 271 270 269 268 265 265 268 271 273 277 280 280 281 282 286 291 294 300 305 303
253 255 253 253 252 251 251 253 nan nan nan nan nan nan nan nan nan nan nan nan 264 266 267 267 266 262 249 242 243 248 251 251 246 251 250 244 242 245 245 246 243 248 249 249 252 254 255 254 251 247 242 244 247 250 253 259 271 275 273 269 268 266 270 273 268 267 267 265 262 262 264 268 268 270 274 275 279 280 283 286 289 294 298 302 307
nan nan nan nan nan nan nan 256 nan nan nan nan nan nan nan nan nan nan nan 262 261 262 266 268 268 265 nan nan 250 251 253 254 251 248 246 244 242 243 244 245 247 248 247 248 248 251 257 256 253 244 243 246 248 254 257 263 267 262 264 267 271 273 271 270 270 267 263 263 261 259 261 262 266 270 271 272 275 278 283 287 292 297 302 305 308
nan nan nan nan nan nan nan nan nan nan nan nan nan nan nan nan 255 nan nan nan nan nan nan nan nan nan nan nan nan nan nan 259 255 252 247 246 246 243 242 244 246 248 248 249 250 252 253 nan nan nan 251 252 254 256 262 267 275 274 271 269 270 271 275 266 258 258 258 257 257 258 260 264 267 269 269 272 275 279 282 284 286 289 295 302 307
nan nan nan nan nan nan nan nan nan nan nan nan nan nan nan nan nan 251 nan nan nan nan nan nan nan nan nan nan nan nan nan nan nan nan nan nan nan 248 244 247 248 246 nan nan nan nan nan nan nan nan nan nan 265 266 265 266 271 nan 273 nan 271 267 261 258 258 nan 260 nan nan nan 265 268 270 268 271 276 277 277 274 273 274 279 283 286 291
nan nan nan nan nan nan nan nan nan nan nan nan nan nan nan nan nan nan nan nan nan nan nan nan nan nan nan nan nan nan nan nan nan nan nan nan nan nan nan nan nan nan nan nan nan nan nan nan nan nan nan nan nan nan 259 265 268 268 266 265 nan nan 260 nan nan nan nan nan nan nan nan nan 270 274 277 276 277 278 275 272 272 272 273 277 281
nan nan nan nan nan nan nan nan nan nan nan nan nan nan nan nan nan nan nan nan nan nan nan nan nan nan nan nan nan nan nan nan nan nan nan nan nan nan nan nan nan nan nan nan nan nan nan nan nan nan 264 264 265 267 269 262 nan nan nan nan nan nan nan nan nan nan nan nan nan nan nan nan nan nan nan nan 279 279 278 277 275 273 274 274 277
nan nan nan nan nan nan nan nan nan nan nan nan nan nan nan nan nan nan nan nan nan nan nan nan nan nan nan nan nan nan nan nan nan nan nan nan nan nan nan nan nan nan nan nan nan nan nan nan nan nan nan nan nan nan nan nan nan nan nan nan nan nan nan nan nan nan nan nan nan nan nan nan nan nan nan nan nan nan nan nan nan 279 278 278 278
nan nan nan nan nan nan nan nan nan nan nan nan nan nan nan nan nan nan nan nan nan nan nan nan nan nan nan nan nan nan nan nan nan nan nan nan nan nan nan nan nan nan nan nan nan nan nan nan nan nan nan nan nan nan nan nan nan nan nan nan nan nan nan nan nan nan nan nan nan nan nan nan nan nan nan nan nan nan nan nan nan nan 279 279 278
nan nan nan nan nan nan nan nan nan nan nan nan nan nan nan nan nan nan nan nan nan nan nan nan nan nan nan nan nan nan nan nan nan nan nan nan nan nan nan nan nan nan nan nan nan nan nan nan nan nan nan nan nan nan nan nan nan nan nan nan nan nan nan nan nan nan nan nan nan nan nan nan nan nan nan nan nan nan nan nan nan nan nan nan nan
nan nan nan nan nan nan nan nan nan nan nan nan nan nan nan nan nan nan nan nan nan nan nan nan nan nan nan nan nan nan nan nan nan nan nan nan nan nan nan nan nan nan nan nan nan nan nan nan nan nan nan nan nan nan nan nan nan nan nan nan nan nan nan nan nan nan nan nan nan nan nan nan nan nan nan nan nan nan nan nan nan nan nan nan nan
nan nan nan nan nan nan nan nan nan nan nan nan nan nan nan nan nan nan nan nan nan nan nan nan nan nan nan nan nan nan nan nan nan nan nan nan nan nan nan nan nan nan nan nan nan nan nan nan nan nan nan nan nan nan nan nan nan nan nan nan nan nan nan nan nan nan nan nan nan nan nan nan nan nan nan nan nan nan nan nan nan nan nan nan nan
nan nan nan nan nan nan nan nan nan nan nan nan nan nan nan nan nan nan nan nan nan nan nan nan nan nan nan nan nan nan nan nan nan nan nan nan nan nan nan nan nan nan nan nan nan nan nan nan nan nan nan nan nan nan nan nan nan nan nan nan nan nan nan nan nan nan nan nan nan nan nan nan nan nan nan nan nan nan nan nan nan nan nan nan nan
nan nan nan nan nan nan nan nan nan nan nan nan nan nan nan nan nan nan nan nan nan nan nan nan nan nan nan nan nan nan nan nan nan nan nan nan nan nan nan nan nan nan nan nan nan nan nan nan nan nan nan nan nan nan nan nan nan nan nan nan nan nan nan nan nan nan nan nan nan nan nan nan nan nan nan nan nan nan nan nan nan nan nan nan nan
nan nan nan nan nan nan nan nan nan nan nan nan nan nan nan nan nan nan nan nan nan nan nan nan nan nan nan nan nan nan nan nan nan nan nan nan nan nan nan nan nan nan nan nan nan nan nan nan nan nan nan nan nan nan nan nan nan nan nan nan nan nan nan nan nan nan nan nan nan nan nan nan nan nan nan nan nan nan nan nan nan nan nan nan nan
nan nan nan nan nan nan nan nan nan nan nan nan nan nan nan nan nan nan nan nan nan nan nan nan nan nan nan nan nan nan nan nan nan nan nan nan nan nan nan nan nan nan nan nan nan nan nan nan nan nan nan nan nan nan nan nan nan nan nan nan nan nan nan nan nan nan nan nan nan nan nan nan nan nan nan nan nan nan nan nan nan nan nan nan nan
nan nan nan nan nan nan nan nan nan nan nan nan nan nan nan nan nan nan nan nan nan nan nan nan nan nan nan nan nan nan nan nan nan nan nan nan nan nan nan nan nan nan nan nan nan nan nan nan nan nan nan nan nan nan nan nan nan nan nan nan nan nan nan nan nan nan nan nan nan nan nan nan nan nan nan nan nan nan nan nan nan nan nan nan nan
nan nan nan nan nan nan nan nan nan nan nan nan nan nan nan nan nan nan nan nan nan nan nan nan nan nan nan nan nan nan nan nan nan nan nan nan nan nan nan nan nan nan nan nan nan nan nan nan nan nan nan nan nan nan nan nan nan nan nan nan nan nan nan nan nan nan nan nan nan nan nan nan nan nan nan nan nan nan nan nan nan nan nan nan nan
nan nan nan nan nan nan nan nan nan nan nan nan nan nan nan nan nan nan nan nan nan nan nan nan nan nan nan nan nan nan nan nan nan nan nan nan nan nan nan nan nan nan nan nan nan nan nan nan nan nan nan nan nan nan nan nan nan nan nan nan nan nan nan nan nan nan nan nan nan nan nan nan nan nan nan nan nan nan nan nan nan nan nan nan nan
nan nan nan nan nan nan nan nan nan nan nan nan nan nan nan nan nan nan nan nan nan nan nan nan nan nan nan nan nan nan nan nan nan nan nan nan nan nan nan nan nan nan nan nan nan nan nan nan nan nan nan nan nan nan nan nan nan nan nan nan nan nan nan nan nan nan nan nan nan nan nan nan nan nan nan nan nan nan nan nan nan nan nan nan nan
nan nan nan nan nan nan nan nan nan nan nan nan nan nan nan nan nan nan nan nan nan nan nan nan nan nan nan nan nan nan nan nan nan nan nan nan nan nan nan nan nan nan nan nan nan nan nan nan nan nan nan nan nan nan nan nan nan nan nan nan nan nan nan nan nan nan nan nan nan nan nan nan nan nan nan nan nan nan nan nan nan nan nan nan nan
nan nan nan nan nan nan nan nan nan nan nan nan nan nan nan nan nan nan nan nan nan nan nan nan nan nan nan nan nan nan nan nan nan nan nan nan nan nan nan nan nan nan nan nan nan nan nan nan nan nan nan nan nan nan nan nan nan nan nan nan nan nan nan nan nan nan nan nan nan nan nan nan nan nan nan nan nan nan nan nan nan nan nan nan nan
nan nan nan nan nan nan nan nan nan nan nan nan nan nan nan nan nan nan nan nan nan nan nan nan nan nan nan nan nan nan nan nan nan nan nan nan nan nan nan nan nan nan nan nan nan nan nan nan nan nan nan nan nan nan nan nan nan nan nan nan nan nan nan nan nan nan nan nan nan nan nan nan nan nan nan nan nan nan nan nan nan nan nan nan nan
nan nan nan nan nan nan nan nan nan nan nan nan nan nan nan nan nan nan nan nan nan nan nan nan nan nan nan nan nan nan nan nan nan nan nan nan nan nan nan nan nan nan nan nan nan nan nan nan nan nan nan nan nan nan nan nan nan nan nan nan nan nan nan nan nan nan nan nan nan nan nan nan nan nan nan nan nan nan nan nan nan nan nan nan nan
nan nan nan nan nan nan nan nan nan nan nan nan nan nan nan nan nan nan nan nan nan nan nan nan nan nan nan nan nan nan nan nan nan nan nan nan nan nan nan nan nan nan nan nan nan nan nan nan nan nan nan nan nan nan nan nan nan nan nan nan nan nan nan nan nan nan nan nan nan nan nan nan nan nan nan nan nan nan nan nan nan nan nan nan nan
nan nan nan nan nan nan nan nan nan nan nan nan nan nan nan nan nan nan nan nan nan nan nan nan nan nan nan nan nan nan nan nan nan nan nan nan nan nan nan nan nan nan nan nan nan nan nan nan nan nan nan nan nan nan nan nan nan nan nan nan nan nan nan nan nan nan nan nan nan nan nan nan nan nan nan nan nan nan nan nan nan nan nan nan nan
nan nan nan nan nan nan nan nan nan nan nan nan nan nan nan nan nan nan nan nan nan nan nan nan nan nan nan nan nan nan nan nan nan nan nan nan nan nan nan nan nan nan nan nan nan nan nan nan nan nan nan nan nan nan nan nan nan nan nan nan nan nan nan nan nan nan nan nan nan nan nan nan nan nan nan nan nan nan nan nan nan nan nan nan nan
nan nan nan nan nan nan nan nan nan nan nan nan nan nan nan nan nan nan nan nan nan nan nan nan nan nan nan nan nan nan nan nan nan nan nan nan nan nan nan nan nan nan nan nan nan nan nan nan nan nan nan nan nan nan nan nan nan nan nan nan nan nan nan nan nan nan nan nan nan nan nan nan nan nan nan nan nan nan nan nan nan nan nan nan nan
nan nan nan nan nan nan nan nan nan nan nan nan nan nan nan nan nan nan nan nan nan nan nan nan nan nan nan nan nan nan nan nan nan nan nan nan nan nan nan nan nan nan nan nan nan nan nan nan nan nan nan nan nan nan nan nan nan nan nan nan nan nan nan nan nan nan nan nan nan nan nan nan nan nan nan nan nan nan nan nan nan nan nan nan nan
nan nan nan nan nan nan nan nan nan nan nan nan nan nan nan nan nan nan nan nan nan nan nan nan nan nan nan nan nan nan nan nan nan nan nan nan nan nan nan nan nan nan nan nan nan nan nan nan nan nan nan nan nan nan nan nan nan nan nan nan nan nan nan nan nan nan nan nan nan nan nan nan nan nan nan nan nan nan nan nan nan nan nan nan nan